{"data":{"norad_id":69534,"intl_designator":"2026-133AC","name":"STARLINK-37407","alt_names":[],"object_type":"PAYLOAD","status":"ACTIVE","operator":null,"country":"US","launch_date":"2026-06-12","launch_site_code":"AFETR","launch_vehicle":null,"mission":null,"orbit_class":"UNKNOWN","rcs_meters":null,"size_class":null,"mass_kg":null,"dimensions":null,"purposes":["comms"],"wikipedia_slug":null,"has_3d_model":false,"image_url":null,"decayed_at":null,"tle_current":{"epoch":"2026-09-19T13:07:05.303424Z","epoch_age_seconds":107878,"freshness":"FRESH","line1":"1 69534U 26133AC  26262.54658916  .00014489  00000+0  43911-3 0  9990","line2":"2 69534  53.1551 234.4343 0001097  79.4997 280.6129 15.34400874 16601","mean_motion":15.34400874,"eccentricity":0.0001097,"inclination_deg":53.1551,"raan_deg":234.4343,"arg_perigee_deg":79.4997,"mean_anomaly_deg":280.6129,"bstar":0.00043911,"rev_number":1660,"period_min":93.84770462533,"perigee_km":461.95020260677,"apogee_km":463.45108238553,"semimajor_km":6840.8376424961,"source":"CELESTRAK","updated_at":"2026-09-20T09:00:44.240697Z"}}}